Location: Unspecified
(0.0000°N, 0.0000°E)
Time: 12:40:54
(UTC+00:00)

Vanguard 3 - Visible Passes

Search period start: 26 November 2014 00:00
Search period end: 06 December 2014 00:00
Orbit: 508 x 3278 km, 33.3° (Epoch: 25 November)

Date Brightness Start Highest point End Pass type
(mag) Time Alt. Az. Time Alt. Az. Time Alt. Az.
26 Nov 10.3 18:43:26 10° NW 19:01:22 39° NNE 19:11:15 23° ENE visible
26 Nov 9.6 20:59:48 10° NW 21:16:06 67° NW 21:16:06 67° NW visible
26 Nov 11.3 23:20:40 10° W 23:20:57 11° W 23:20:57 11° W visible
27 Nov 9.7 19:44:34 10° NW 20:04:25 62° NNE 20:09:32 49° E visible
27 Nov 10.3 22:02:57 10° WNW 22:14:25 40° W 22:14:25 40° W visible
28 Nov 10.2 18:30:11 10° NW 18:48:44 45° NNE 19:03:16 14° E visible
28 Nov 9.4 20:46:33 10° NW 21:06:29 84° SW 21:08:11 76° SSE visible
28 Nov 11.0 23:08:22 10° W 23:13:06 19° W 23:13:06 19° W visible
29 Nov 9.8 19:31:17 10° NW 19:51:31 71° NE 20:02:19 27° ESE visible
29 Nov 9.9 21:50:06 10° WNW 22:07:16 49° SW 22:07:16 49° SW visible
30 Nov 10.2 18:17:02 10° NW 18:35:54 52° NNE 18:52:45 10° ESE visible
30 Nov 9.8 20:33:26 10° WNW 20:53:30 74° SW 21:01:54 34° SE visible
30 Nov 10.6 22:56:16 10° W 23:06:55 25° SW 23:06:55 25° SW visible
01 Dec 9.9 19:18:08 10° NW 19:38:28 81° NE 19:54:40 10° ESE visible
01 Dec 10.2 21:37:26 10° WNW 21:54:56 43° SW 22:02:22 27° SSE visible
02 Dec 10.1 18:03:58 10° NW 18:22:53 60° NE 18:40:40 10° ESE visible
02 Dec 10.0 20:20:30 10° WNW 20:40:25 65° SW 20:55:05 10° SE visible
02 Dec 10.8 22:44:23 10° W 22:56:28 23° SW 23:05:19 10° SSE visible
03 Dec 10.0 19:05:08 10° NW 19:25:17 89° SW 19:42:18 10° SE visible
03 Dec 10.5 21:24:58 10° W 21:42:06 38° SW 21:54:28 10° SSE visible
04 Dec 10.1 17:51:03 10° NW 18:09:44 68° NE 18:28:21 10° ESE visible
04 Dec 10.3 20:07:45 10° WNW 20:27:18 58° SW 20:42:36 10° SE visible
04 Dec 11.0 22:32:43 10° WSW 22:44:10 20° SSW 22:52:53 10° S visible
05 Dec 10.2 18:52:18 10° WNW 19:12:01 80° SW 19:29:46 10° SE visible
05 Dec 10.8 21:12:44 10° W 21:29:21 34° SW 21:41:58 10° SSE visible
